DECAYED
Showing default

DMSAT-1, 47940 (Decayed)

Orbit data source: Space-Track

DMSAT-1, 47940 was a payload satellite owned by Rashid Space Ctr (AE) in LEO that was launched on Mon, 22 Mar 2021 UTC via a SOYUZ-2-1A launch vehicle from the Tyuratam Missile And Space Complex (TTMTR). Payload-class satellites include a variety of spacecraft equipped with specific instruments for various scientific and technological missions. These include communications satellites like Starlink; space stations such as the ISS; scientific satellites like the Hubble; Earth observation satellites from companies like Planet Labs, Umbra, and HawkEye 360; GPS; miniature CubeSats for education and research; and military/defense satellites.

Not visible in the next 10 days
Identifier
47940, 2021-022J
Orbit
Decayed
Country
Flag of AEAE / UAE
Related business
Manufacturer
UTIAS-SFL
Mission
Decayed Civil Imaging
Bus & Motor
NEMO-V1, Unknown motor
Mass
15 kg wet, 15 kg dry
Launch date (UTC)
2021-03-22 (5 years ago)
Launch vehicle
SOYUZ-2-1A
Launch site
Tyuratam Missile And Space Complex (TTMTR)
Object type
Payload
Rocket body
Debris
Shape & HBR
Box, 0.2 m
Radar Cross Section
0.100 m², Medium (>0.1 m² and < 1m²)

Expand to show TLE details & history
Last TLE update: 1 year ago

TLE from 1 year ago
0 DMSAT-1
1 47940U 21022J   25076.91382183  .16714066  28253-5  26243-3 0  9992
2 47940  97.4056 354.0110 0006714 188.9574 171.1611 16.48247613221220
Epoch: 2025-03-17T21:55Z
TLE epoch observation values (Epoch: 2025-03-17T21:55:54.206Z)
Latitude
-0.00001°
Longitude
-150.68868°
Altitude
151.544 km
Speed
7.813 km/s
True Right ascension
23h 36m 02s
True Declination
0° 00' 00"
Sunlit
Object was in daylight at epoch
Visualization orbit readout
Latitude
Unknown
Longitude
Unknown
Altitude
Unknown
Speed
Unknown
Apparent Right ascension
Unknown
Apparent Declination
Unknown
Sunlit
N/A
Visualization observer readout
Local Sidereal Time
21:41:17
Azimuth
Unknown
Elevation
Unknown
Doppler factor
Unknown
Orbital elements
Apogee altitude
145.128 km
Perigee altitude
136.375 km
Semi-major axis
6,518.888 km
Eccentricity
0.00067
Inclination
97.4056°
RAAN
354.011°
Arg. of periapsis
188.9574°
True anomaly
171.17291°
Mean anomaly
171.1611°
Eccentric anomaly
171.16701°
Mean motion
4.12366 °/min
Orbital period
87.3 mins
BSTAR
0.00026243
Loading maneuver chart data...
Computing Atmospheric mass density...
Loading historical data...
Loading historical data...
Loading historical data...
Loading historical data...
Loading historical data...
Loading historical data...
Loading historical data...

Documentation

Showing up to 5 results
|